Location: Betzi
(47.2343°N, 9.5260°E)
Time: 08:06:44
(UTC+00:00)

COSMOS 2455 - Visible Passes

Search period start: 06 October 2022 00:00
Search period end: 16 October 2022 00:00
Orbit: 902 x 908 km, 67.1° (Epoch: 06 October)

Date Brightness Start Highest point End Pass type
(mag) Time Alt. Az. Time Alt. Az. Time Alt. Az.
06 Oct 5.4 01:35:03 10° NNW 01:38:36 16° NNE 01:42:08 10° ENE visible
06 Oct 3.9 03:20:21 10° NNW 03:26:08 46° NE 03:31:54 10° ESE visible
06 Oct 3.5 18:27:36 10° SSE 18:32:44 30° ESE 18:33:14 30° E visible
06 Oct 3.8 20:12:28 10° SW 20:26:29 - NNE 20:16:34 41° WSW visible
06 Oct 5.6 22:09:38 10° NNE 22:09:38 10° NNE 22:09:39 10° NNE visible
06 Oct 5.7 23:52:50 10° NNW 23:54:19 11° N 23:55:47 10° NNE visible
07 Oct 5.2 01:38:55 10° NNW 01:42:58 18° NNE 01:47:00 10° ENE visible
07 Oct 3.4 03:24:16 10° NNW 03:30:14 58° NE 03:36:09 10° SE visible
07 Oct 3.2 18:31:02 10° S 18:36:33 40° ESE 18:39:52 22° ENE visible
07 Oct 3.8 20:16:43 10° WSW 20:22:27 44° NW 20:23:11 42° NNW visible
07 Oct 5.6 22:13:51 - NNE 22:13:51 - NNE 22:06:31 10° WNW visible
07 Oct 5.7 23:57:10 10° N 23:58:48 11° N 00:00:27 10° NNE visible
08 Oct 5.0 01:42:47 10° NNW 01:47:17 21° NNE 01:51:46 10° E visible
08 Oct 3.0 03:28:14 10° NNW 03:34:17 74° NE 03:40:17 10° SE visible
08 Oct 2.9 18:34:38 10° S 18:40:25 53° ESE 18:46:07 11° NE visible
08 Oct 4.2 20:21:07 10° WSW 20:26:36 36° NW 20:29:24 24° N visible
08 Oct 5.6 22:11:28 10° NW 22:18:37 - NNE 22:12:40 12° NW visible
09 Oct 5.6 00:01:51 11° N 00:03:17 12° N 00:05:18 10° NNE visible
09 Oct 4.8 01:46:39 10° NNW 01:51:33 25° NE 01:56:26 10° E visible
09 Oct 2.8 03:32:13 10° NW 03:38:17 87° SW 03:44:18 10° SSE visible
09 Oct 2.7 18:38:23 10° SSW 18:44:20 69° ESE 18:50:20 10° NE visible
09 Oct 4.5 20:25:35 10° W 20:30:48 29° NW 20:34:44 15° NNE visible
09 Oct 5.6 22:16:25 10° NW 22:24:19 - NNE 22:17:55 12° NNW visible
10 Oct 5.6 00:07:38 12° NNE 00:07:44 12° NNE 00:10:14 10° NE visible
10 Oct 4.5 01:50:56 12° NNW 01:55:48 30° NE 02:01:02 10° E visible
10 Oct 2.7 03:36:14 10° NW 03:42:14 68° WSW 03:48:11 10° SSE visible
10 Oct 2.8 18:42:17 10° SSW 18:48:18 89° ESE 18:54:22 10° NE visible
10 Oct 4.8 20:30:11 10° W 20:35:02 25° NW 20:39:13 13° NNE visible
10 Oct 5.7 22:21:21 10° NNW 22:22:23 11° NNW 22:22:23 11° NNW visible
11 Oct 5.6 00:14:05 12° NE 00:14:05 12° NE 00:15:11 10° NE visible
11 Oct 4.2 01:57:25 26° N 01:59:59 36° NE 02:05:30 10° ESE visible
11 Oct 2.9 03:40:45 12° NW 03:46:08 52° WSW 03:51:56 10° S visible
11 Oct 3.0 18:46:18 10° SW 18:52:18 72° NW 18:58:20 10° NNE visible
11 Oct 5.0 20:34:51 10° W 20:39:18 21° NNW 20:43:19 12° NNE visible
11 Oct 5.7 22:26:12 10° NNW 22:26:28 10° NNW 22:26:28 10° NNW visible
12 Oct5.700:20:44ENE00:20:44ENE00:09:36NWvisible
12 Oct 3.7 02:04:04 45° NE 02:04:07 45° NE 02:09:53 10° ESE visible
12 Oct 3.2 03:47:24 26° WNW 03:50:00 39° WSW 03:55:31 10° S visible
12 Oct 3.6 17:05:37 10° SSE 17:10:44 30° ESE 17:15:52 10° NE visible
12 Oct 3.4 18:50:26 10° SW 18:56:21 57° NW 19:02:17 10° NNE visible
12 Oct 5.2 20:39:38 10° WNW 20:43:38 18° NNW 20:47:14 11° NNE visible
13 Oct6.000:27:20E00:27:20E00:13:30NNWvisible
13 Oct 4.1 02:10:39 34° ESE 02:10:39 34° ESE 02:14:08 10° SE visible
13 Oct 3.6 03:53:59 30° WSW 03:53:59 30° WSW 03:58:55 10° SSW visible
13 Oct 3.3 17:09:03 10° S 17:14:33 39° ESE 17:20:06 10° NE visible
13 Oct 3.9 18:54:42 10° WSW 19:00:26 45° NW 19:06:13 10° NNE visible
13 Oct 5.4 20:44:29 10° WNW 20:48:00 16° NNW 20:51:05 11° N visible
14 Oct 4.9 02:17:04 17° SE 02:17:04 17° SE 02:18:16 10° SE visible
14 Oct 4.4 04:00:22 16° SW 04:00:22 16° SW 04:02:06 10° SSW visible
14 Oct 3.0 17:12:37 10° S 17:18:25 52° ESE 17:24:15 10° NE visible
14 Oct 4.2 18:59:04 10° WSW 19:04:35 36° NW 19:10:07 10° NNE visible
14 Oct 5.4 20:49:24 10° NW 20:52:24 14° NNW 20:54:53 11° N visible
15 Oct 2.9 17:16:22 10° SSW 17:22:20 69° ESE 17:28:19 10° NE visible
15 Oct 4.6 19:03:33 10° W 19:08:46 30° NW 19:14:01 10° NNE visible
15 Oct 5.5 20:54:21 10° NW 20:56:50 12° NNW 20:58:40 11° N visible
